TimeHST,TemperatureF,Dew PointF,Humidity,Sea Level PressureIn,VisibilityMPH,Wind Direction,Wind SpeedMPH,Gust SpeedMPH,PrecipitationIn,Events,Conditions,WindDirDegrees,DateUTC
12:53 AM,64.0,54.0,70,30.00,10.0,North,4.6,-,N/A,,Partly Cloudy,350,2013-04-01 10:53:00
1:53 AM,64.9,55.9,73,29.99,10.0,NNW,6.9,-,N/A,,Partly Cloudy,330,2013-04-01 11:53:00
2:53 AM,64.0,55.0,73,29.98,10.0,Calm,Calm,-,N/A,,Partly Cloudy,0,2013-04-01 12:53:00
3:53 AM,63.0,54.0,72,29.97,10.0,Calm,Calm,-,N/A,,Partly Cloudy,0,2013-04-01 13:53:00
4:53 AM,66.0,55.9,70,29.98,10.0,NW,5.8,-,N/A,,Mostly Cloudy,320,2013-04-01 14:53:00
5:53 AM,66.9,55.9,68,29.99,10.0,Variable,4.6,-,N/A,,Mostly Cloudy,0,2013-04-01 15:53:00
6:53 AM,66.0,55.9,70,30.00,10.0,Calm,Calm,-,N/A,,Scattered Clouds,0,2013-04-01 16:53:00
7:53 AM,69.1,57.0,65,30.01,10.0,North,5.8,-,N/A,,Scattered Clouds,360,2013-04-01 17:53:00
8:53 AM,72.0,55.0,55,30.02,10.0,North,9.2,-,N/A,,Mostly Cloudy,350,2013-04-01 18:53:00
9:53 AM,72.0,55.0,55,30.02,10.0,NNW,10.4,-,N/A,,Mostly Cloudy,340,2013-04-01 19:53:00
10:53 AM,73.9,55.9,53,30.01,10.0,NNW,12.7,18.4,N/A,,Mostly Cloudy,330,2013-04-01 20:53:00
11:53 AM,71.1,55.9,59,30.00,10.0,North,15.0,28.8,N/A,,Mostly Cloudy,350,2013-04-01 21:53:00
12:53 PM,73.0,54.0,51,29.99,10.0,North,11.5,17.3,N/A,,Mostly Cloudy,350,2013-04-01 22:53:00
1:53 PM,73.0,55.0,53,29.96,10.0,North,4.6,-,N/A,,Mostly Cloudy,360,2013-04-01 23:53:00
2:53 PM,73.9,54.0,50,29.94,10.0,NNW,17.3,21.9,N/A,,Mostly Cloudy,330,2013-04-02 00:53:00
3:53 PM,73.9,53.1,48,29.94,10.0,NNW,15.0,-,N/A,,Mostly Cloudy,340,2013-04-02 01:53:00
4:53 PM,73.0,55.9,55,29.94,10.0,NNW,13.8,18.4,N/A,,Mostly Cloudy,340,2013-04-02 02:53:00
5:53 PM,70.0,57.0,63,29.96,10.0,NNW,15.0,-,N/A,,Mostly Cloudy,340,2013-04-02 03:53:00
6:53 PM,70.0,57.0,63,29.99,10.0,NNW,11.5,-,N/A,,Mostly Cloudy,330,2013-04-02 04:53:00
7:53 PM,68.0,57.0,68,30.00,10.0,North,9.2,-,N/A,,Partly Cloudy,350,2013-04-02 05:53:00
8:53 PM,66.9,55.0,66,30.01,10.0,North,3.5,-,N/A,,Partly Cloudy,10,2013-04-02 06:53:00
9:53 PM,66.9,55.0,66,30.03,10.0,Calm,Calm,-,N/A,,Partly Cloudy,0,2013-04-02 07:53:00
10:53 PM,66.9,55.9,68,30.04,10.0,NNW,5.8,-,N/A,,Scattered Clouds,340,2013-04-02 08:53:00
11:53 PM,66.9,55.9,68,30.03,10.0,Calm,Calm,-,N/A,,Scattered Clouds,0,2013-04-02 09:53:00